Current Version              Previous Version:    01  02  03  04  05  06  07  08  09  10  11  12  13  14  15  16  17  18  19  20  21  22  23  24  25  26  27  28  29  30  
   31  32  33  34  35  36  37  38  39  40  41  42  43  44  45  46  47  48  49  50  51  52  53  54  55  56  57  58  59  60  

[Printable]
254
ASUS44 KFWD 011503
RWRTX
NORTH TEXAS HOURLY WEATHER ROUNDUP
NATIONAL WEATHER SERVICE FORT WORTH TX
900 AM CST SUN FEB 01 2015

NOTE: "FAIR" INDICATES FEW OR NO CLOUDS BELOW 12,000 FEET WITH NO
SIGNIFICANT WEATHER AND/OR OBSTRUCTIONS TO VISIBILITY.

TXZ118-119-011600-
DALLAS/FORT WORTH METROPLEX

CITY           SKY/WX    TMP DP  RH WIND       PRES   REMARKS
DFW AIRPORT    CLOUDY    57  54  89 W10       29.89R
DALLAS LOVE    CLOUDY    58  55  90 NW12      29.89R
FTW MEACHAM    CLOUDY    57  54  89 W7        29.90R FOG
DAL-EXECUTIVE  CLOUDY    59  56  89 W7        29.89R
FTW-ALLIANCE   CLOUDY    56  53  90 W9G17     29.91R
FTW-SPINKS     PTSUNNY   57  55  94 W9        29.92R
ARLINGTON      CLOUDY    59  55  87 W7        29.90R
GRAND PRAIRIE  PTSUNNY   57  57 100 W6        29.91R
MESQUITE       PTSUNNY   59  55  88 W12G21    29.89R
LANCASTER      DRIZZLE   58  55  88 W10       29.91R
$$

TXZ091>094-102>105-117-120-121-131>134-011600-
NORTH CENTRAL TEXAS

CITY           SKY/WX    TMP DP  RH WIND       PRES   REMARKS
SHRMAN/DENISON CLOUDY    52  51  95 NW17G24   29.91R
BRIDGEPORT     CLOUDY    51  51 100 NW14G22   29.95R
DECATUR        CLOUDY    49  49  99 NW13G20   29.92R
DENTON         CLOUDY    54  51  90 NW15      29.90R
MCKINNEY       CLOUDY    57  54  89 W13       29.89R
GREENVILLE     CLOUDY    57  54  88 W9        29.87S
ROCKWALL       DRIZZLE   58  57  96 W8        29.87R
TERRELL        LGT RAIN  61  58  90 W16       29.88R FOG
WAXAHACHIE     CLOUDY    58  58  99 W10G17    29.91R
CLEBURNE       CLOUDY    57  57 100 W9        29.93R
GRANBURY       CLOUDY    55  54  95 CALM      29.93R
$$

TXZ083>090-098>101-113>116-127>130-139>142-154-155-011600-
WESTERN NORTH TEXAS

CITY           SKY/WX    TMP DP  RH WIND       PRES   REMARKS
WICHITA FALLS  CLOUDY    44  38  79 N23G32    29.97R WCI  35
WF-KICKAPOO    CLOUDY    40  32  71 N23G29    29.99R WCI  30
VERNON         CLOUDY    44  34  67 N22G29    30.03R WCI  36
ABILENE        CLOUDY    52  48  86 NW13      29.98R
ABILENE-DYESS  CLOUDY    51  48  89 NW13G22   29.98R
MINERAL WELLS  CLOUDY    53  52  96 W9        29.91R
COMANCHE       CLOUDY    54  54 100 W8        29.95R
BROWNWOOD      CLOUDY    52  52 100 NW6       29.96R FOG
COLEMAN        MOSUNNY   53  53 100 NW8       29.96R
$$

TXZ143>147-156>162-174-175-011600-
CENTRAL TEXAS

CITY           SKY/WX    TMP DP  RH WIND       PRES   REMARKS
WACO           SUNNY     62  60  93 SW9       29.90R
WACO-TSTC      MOSUNNY   64  63  94 SW10      29.90R
WACO-MCGREGOR  MOSUNNY   63  57  82 SW10      29.92R
CORSICANA      CLOUDY    63  59  87 SW13      29.89R
MEXIA          CLOUDY    62  60  93 SW14      29.89R
HEARNE         MOSUNNY   64  62  93 S10       29.92R
TEMPLE         PTSUNNY   61  55  82 S6        29.92R
KILLEEN        CLOUDY    61  59  94 SW6       29.92R
KILLEEN-SKYLRK CLOUDY    63  55  77 S5        29.90R
FORT HOOD      CLOUDY    61  60  94 SW5       29.92R
$$

TXZ095>097-106>112-122>126-135>138-148>153-164>167-011600-
EAST TEXAS

CITY           SKY/WX    TMP DP  RH WIND       PRES   REMARKS
PARIS          CLOUDY    55  52  88 W9        29.87R
MOUNT PLEASANT CLOUDY    60  60  97 SW9       29.85S
GILMER         CLOUDY    60  59  97 S6        29.85F
MINEOLA        DRIZZLE   63  61  94 S13       29.85F
TYLER          CLOUDY    62  59  90 SW12      29.86S
LONGVIEW       CLOUDY    61  58  90 S10       29.86F
MARSHALL       CLOUDY    61  58  91 SW6       29.90S
PALESTINE      CLOUDY    62  62 100 S7        29.90R
JACKSONVILLE   CLOUDY    63  61  94 MISG      29.90R
HENDERSON      CLOUDY    61  60  97 S6        29.89S
NACOGDOCHES    CLOUDY    63  59  88 SW12      29.91R
LUFKIN         CLOUDY    67  60  78 S12       29.91F
$$

SUPPLEMENTAL OBSERVATIONS (CENTRAL)

CITY           SKY/WX    TMP DP  RH WIND       PRES   REMARKS
$$

SUPPLEMENTAL OBSERVATIONS (WEST)

CITY           SKY/WX    TMP DP  RH WIND       PRES   REMARKS
$$

SUPPLEMENTAL OBSERVATIONS (EAST)

CITY           SKY/WX    TMP DP  RH WIND       PRES   REMARKS
$$

SUPPLEMENTAL OBSERVATIONS ARE A COLLECTION OF AUTOMATED INSTRUMENTS
THAT ARE MAINTAINED BY A VARIETY OF FEDERAL AND STATE AGENCIES.
CERTAIN ELEMENTS...SUCH AS HUMIDITY VALUES AND SUSTAINED WIND
SPEEDS...MAY BE APPROXIMATED.